This is the latest recevied weather packets stored in our database for station/object OE6PLD-13. If no packets are shown the sender has not sent any weather packets the latest 10 day(s).
| Time | Temp. | Humidity | Pressure | Rain* | Wind** | Luminosity | Snow |
|---|---|---|---|---|---|---|---|
| 1777275551 | 15.56° C | 43% | 1016.9 hPa | 0.76 mm | - | 528 W/m² | - |
| 1777275368 | 15° C | 44% | 1016.9 hPa | 0.76 mm | - | 550 W/m² | - |
| 1777275185 | 15° C | 42% | 1016.9 hPa | 0.76 mm | - | 539 W/m² | - |
| 1777275001 | 15° C | 44% | 1017 hPa | 0.76 mm | - | 512 W/m² | - |
| 1777274818 | 15° C | 44% | 1017.1 hPa | 0.76 mm | - | 522 W/m² | - |
| 1777274635 | 15° C | 44% | 1017.1 hPa | 0.76 mm | - | 524 W/m² | - |
| 1777274451 | 15° C | 45% | 1017.1 hPa | 0.76 mm | - | 494 W/m² | - |
| 1777274268 | 13.89° C | 46% | 1017 hPa | 0.76 mm | - | 448 W/m² | - |
| 1777274084 | 13.89° C | 46% | 1017.2 hPa | 0.76 mm | - | 426 W/m² | - |
| 1777273901 | 13.89° C | 44% | 1017.2 hPa | 0.76 mm | - | 409 W/m² | - |
| 1777273718 | 13.33° C | 48% | 1017.1 hPa | 0.76 mm | - | 406 W/m² | - |
| 1777273534 | 13.89° C | 47% | 1017.2 hPa | 0.76 mm | - | 379 W/m² | - |
| 1777273351 | 13.89° C | 44% | 1017.3 hPa | 0.76 mm | - | 358 W/m² | - |
| 1777273168 | 13.89° C | 43% | 1017.5 hPa | 0.76 mm | - | 364 W/m² | - |
| 1777272984 | 15° C | 42% | 1017.4 hPa | 0.76 mm | - | 352 W/m² | - |
| 1777272801 | 14.44° C | 44% | 1017.4 hPa | 0.76 mm | - | 339 W/m² | - |
| 1777272618 | 13.89° C | 46% | 1017.3 hPa | 0.76 mm | - | 323 W/m² | - |
| 1777272434 | 13.89° C | 48% | 1017.3 hPa | 0.76 mm | - | 317 W/m² | - |
| 1777272251 | 13.33° C | 50% | 1017.4 hPa | 0.76 mm | - | 314 W/m² | - |
| 1777272068 | 13.33° C | 52% | 1017.5 hPa | 0.76 mm | - | 310 W/m² | - |
| 1777271884 | 12.78° C | 53% | 1017.5 hPa | 0.76 mm | - | 298 W/m² | - |
| 1777271701 | 12.22° C | 54% | 1017.5 hPa | 0.76 mm | - | 279 W/m² | - |
| 1777271518 | 12.22° C | 57% | 1017.5 hPa | 0.76 mm | - | 280 W/m² | - |
| 1777271334 | 12.78° C | 57% | 1017.5 hPa | 0.76 mm | - | 289 W/m² | - |
| 1777271151 | 12.78° C | 58% | 1017.4 hPa | 0.76 mm | - | 275 W/m² | - |
* Rain latest hour (hover to see other rain measurements)
** Current wind speed in m/s (hover to see current wind gust speed)